Time,TemperatureF,DewpointF,PressureIn,WindDirection,WindDirectionDegrees,WindSpeedMPH,WindSpeedGustMPH,Humidity,HourlyPrecipIn,Conditions,Clouds,dailyrainin,SoftwareType,DateUTC
2013-01-24 00:00:00,10.4,6.5,30.20,NW,319,0.0,0.0,84,0.00,,BKN110,0.00,VWS V14.01,2013-01-24 05:00:00,
2013-01-24 00:01:00,10.4,6.5,30.20,NW,319,0.0,0.0,84,0.00,,BKN110,0.00,VWS V14.01,2013-01-24 05:01:00,
2013-01-24 00:03:00,10.4,6.5,30.20,NW,319,0.0,0.0,84,0.00,,BKN110,0.00,VWS V14.01,2013-01-24 05:03:00,
2013-01-24 00:08:00,10.4,6.8,30.20,NW,319,0.0,0.0,85,0.00,,BKN110,0.00,VWS V14.01,2013-01-24 05:08:00,
2013-01-24 00:13:00,10.5,6.9,30.19,NW,319,0.0,0.0,85,0.00,,BKN110,0.00,VWS V14.01,2013-01-24 05:13:00,
2013-01-24 00:18:00,10.7,7.1,30.19,NW,319,0.0,0.0,85,0.00,,BKN110,0.00,VWS V14.01,2013-01-24 05:18:00,
2013-01-24 00:23:00,10.7,7.1,30.19,NW,319,0.0,0.0,85,0.00,,BKN110,0.00,VWS V14.01,2013-01-24 05:23:00,
2013-01-24 00:28:00,10.8,7.2,30.19,NW,319,0.0,0.0,85,0.00,,BKN110,0.00,VWS V14.01,2013-01-24 05:28:00,
2013-01-24 00:33:00,10.9,7.3,30.18,NW,319,0.0,0.0,85,0.00,,BKN110,0.00,VWS V14.01,2013-01-24 05:33:00,
2013-01-24 00:38:00,10.9,7.3,30.18,NW,319,0.0,0.0,85,0.00,,BKN110,0.00,VWS V14.01,2013-01-24 05:38:00,
2013-01-24 00:43:00,10.8,7.2,30.18,NW,319,0.0,0.0,85,0.00,,BKN110,0.00,VWS V14.01,2013-01-24 05:43:00,
2013-01-24 00:48:00,10.8,7.2,30.18,NW,319,0.0,0.0,85,0.00,,BKN110,0.00,VWS V14.01,2013-01-24 05:48:00,
2013-01-24 00:53:00,10.9,7.3,30.18,NW,319,0.0,0.0,85,0.00,,BKN110,0.00,VWS V14.01,2013-01-24 05:53:00,
2013-01-24 00:58:00,10.8,7.2,30.17,NW,319,0.0,0.0,85,0.00,,BKN110,0.00,VWS V14.01,2013-01-24 05:58:00,
2013-01-24 01:03:00,10.8,7.2,30.17,NW,319,0.0,0.0,85,0.00,,SCT120,0.00,VWS V14.01,2013-01-24 06:03:00,
2013-01-24 01:08:00,10.8,7.2,30.17,NW,319,0.0,0.0,85,0.00,,SCT120,0.00,VWS V14.01,2013-01-24 06:08:00,
2013-01-24 01:13:00,10.6,7.0,30.17,NW,319,0.0,0.0,85,0.00,,SCT120,0.00,VWS V14.01,2013-01-24 06:13:00,
2013-01-24 01:18:00,10.5,6.9,30.17,NW,319,0.0,0.0,85,0.00,,SCT120,0.00,VWS V14.01,2013-01-24 06:18:00,
2013-01-24 01:23:00,10.4,6.8,30.17,NW,319,0.0,0.0,85,0.00,,SCT120,0.00,VWS V14.01,2013-01-24 06:23:00,
2013-01-24 01:28:00,10.3,6.7,30.17,NW,319,0.0,0.0,85,0.00,,SCT120,0.00,VWS V14.01,2013-01-24 06:28:00,
2013-01-24 01:33:00,10.2,6.3,30.17,NW,319,0.0,0.0,84,0.00,,SCT120,0.00,VWS V14.01,2013-01-24 06:33:00,
2013-01-24 01:38:00,10.1,6.2,30.17,NW,319,0.0,0.0,84,0.00,,SCT120,0.00,VWS V14.01,2013-01-24 06:38:00,
2013-01-24 01:43:00,10.0,6.4,30.16,NW,319,0.0,0.0,85,0.00,,SCT120,0.00,VWS V14.01,2013-01-24 06:43:00,
2013-01-24 01:48:00,10.0,6.4,30.16,NW,319,0.0,0.0,85,0.00,,SCT120,0.00,VWS V14.01,2013-01-24 06:48:00,
2013-01-24 01:53:00,9.9,6.3,30.16,NW,319,0.0,0.0,85,0.00,,SCT120,0.00,VWS V14.01,2013-01-24 06:53:00,
2013-01-24 01:58:00,9.8,6.2,30.16,NW,319,0.0,0.0,85,0.00,,SCT120,0.00,VWS V14.01,2013-01-24 06:58:00,
2013-01-24 02:03:00,9.9,6.3,30.16,NW,319,0.0,0.0,85,0.00,,CLR,0.00,VWS V14.01,2013-01-24 07:03:00,
2013-01-24 02:08:00,9.9,6.3,30.16,NW,319,0.0,0.0,85,0.00,,CLR,0.00,VWS V14.01,2013-01-24 07:08:00,
2013-01-24 02:13:00,9.9,6.3,30.16,NW,319,0.0,0.0,85,0.00,,CLR,0.00,VWS V14.01,2013-01-24 07:13:00,
2013-01-24 02:18:00,9.8,6.2,30.16,NW,319,0.0,0.0,85,0.00,,CLR,0.00,VWS V14.01,2013-01-24 07:18:00,
2013-01-24 02:23:00,9.8,6.2,30.16,NW,319,0.0,0.0,85,0.00,,CLR,0.00,VWS V14.01,2013-01-24 07:23:00,
2013-01-24 02:28:00,9.8,6.5,30.16,NW,319,0.0,0.0,86,0.00,,CLR,0.00,VWS V14.01,2013-01-24 07:28:00,
2013-01-24 02:33:00,9.8,6.5,30.16,NW,319,0.0,1.0,86,0.00,,CLR,0.00,VWS V14.01,2013-01-24 07:33:00,
2013-01-24 02:38:00,9.8,6.5,30.15,NW,319,0.0,1.0,86,0.00,,CLR,0.00,VWS V14.01,2013-01-24 07:38:00,
2013-01-24 02:43:00,9.7,6.4,30.16,NW,319,0.0,1.0,86,0.00,,CLR,0.00,VWS V14.01,2013-01-24 07:43:00,
2013-01-24 02:48:00,9.7,6.4,30.15,NW,319,0.0,1.0,86,0.00,,CLR,0.00,VWS V14.01,2013-01-24 07:48:00,
2013-01-24 02:53:00,9.6,6.3,30.16,NW,319,0.0,1.0,86,0.00,,CLR,0.00,VWS V14.01,2013-01-24 07:53:00,
2013-01-24 02:58:00,9.6,6.3,30.15,NW,319,0.0,1.0,86,0.00,,CLR,0.00,VWS V14.01,2013-01-24 07:58:00,
2013-01-24 03:03:00,9.5,6.2,30.15,NW,319,0.0,0.0,86,0.00,,BKN120,0.00,VWS V14.01,2013-01-24 08:03:00,
2013-01-24 03:08:00,9.4,6.1,30.15,NW,319,0.0,0.0,86,0.00,,BKN120,0.00,VWS V14.01,2013-01-24 08:08:00,
2013-01-24 03:13:00,9.4,6.3,30.15,NW,319,0.0,0.0,87,0.00,,BKN120,0.00,VWS V14.01,2013-01-24 08:13:00,
2013-01-24 03:18:00,9.3,6.2,30.15,NW,319,0.0,1.0,87,0.00,,BKN120,0.00,VWS V14.01,2013-01-24 08:18:00,
2013-01-24 03:23:00,9.2,6.1,30.15,NW,319,0.0,1.0,87,0.00,,BKN120,0.00,VWS V14.01,2013-01-24 08:23:00,
2013-01-24 03:28:00,9.2,6.1,30.14,NW,319,0.0,1.0,87,0.00,,BKN120,0.00,VWS V14.01,2013-01-24 08:28:00,
2013-01-24 03:33:00,9.2,6.1,30.15,NW,319,1.0,1.0,87,0.00,,BKN120,0.00,VWS V14.01,2013-01-24 08:33:00,
2013-01-24 03:38:00,9.2,6.1,30.15,NW,319,0.0,1.0,87,0.00,,BKN120,0.00,VWS V14.01,2013-01-24 08:38:00,
2013-01-24 03:43:00,9.2,6.1,30.15,NW,319,0.0,1.0,87,0.00,,BKN120,0.00,VWS V14.01,2013-01-24 08:43:00,
2013-01-24 03:48:00,9.3,6.2,30.15,NW,319,0.0,1.0,87,0.00,,BKN120,0.00,VWS V14.01,2013-01-24 08:48:00,
2013-01-24 03:53:00,9.4,6.3,30.15,NW,319,1.0,1.0,87,0.00,,BKN120,0.00,VWS V14.01,2013-01-24 08:53:00,
2013-01-24 03:58:00,9.5,6.4,30.15,NW,319,0.0,2.0,87,0.00,,BKN120,0.00,VWS V14.01,2013-01-24 08:58:00,
2013-01-24 04:03:00,9.6,6.3,30.15,NW,319,0.0,0.0,86,0.00,,BKN120,0.00,VWS V14.01,2013-01-24 09:03:00,
2013-01-24 04:08:00,9.6,6.3,30.15,NW,319,0.0,0.0,86,0.00,,BKN120,0.00,VWS V14.01,2013-01-24 09:08:00,
2013-01-24 04:13:00,9.7,6.4,30.15,NW,319,0.0,1.0,86,0.00,,BKN120,0.00,VWS V14.01,2013-01-24 09:13:00,
2013-01-24 04:18:00,9.8,6.2,30.15,NW,319,0.0,1.0,85,0.00,,BKN120,0.00,VWS V14.01,2013-01-24 09:18:00,
2013-01-24 04:23:00,9.8,6.2,30.15,NW,319,0.0,1.0,85,0.00,,BKN120,0.00,VWS V14.01,2013-01-24 09:23:00,
2013-01-24 04:28:00,9.9,6.3,30.16,NW,319,0.0,1.0,85,0.00,,BKN120,0.00,VWS V14.01,2013-01-24 09:28:00,
2013-01-24 04:33:00,10.0,6.4,30.16,NW,319,0.0,1.0,85,0.00,,BKN120,0.00,VWS V14.01,2013-01-24 09:33:00,
2013-01-24 04:38:00,10.0,6.4,30.16,NW,319,0.0,1.0,85,0.00,,BKN120,0.00,VWS V14.01,2013-01-24 09:38:00,
2013-01-24 04:43:00,10.1,6.5,30.16,NW,319,0.0,1.0,85,0.00,,BKN120,0.00,VWS V14.01,2013-01-24 09:43:00,
2013-01-24 04:48:00,10.1,6.5,30.16,NW,319,0.0,1.0,85,0.00,,BKN120,0.00,VWS V14.01,2013-01-24 09:48:00,
2013-01-24 04:54:00,10.1,6.5,30.17,NW,319,0.0,1.0,85,0.00,,BKN120,0.00,VWS V14.01,2013-01-24 09:54:00,
2013-01-24 04:59:00,10.2,6.6,30.17,NW,319,0.0,1.0,85,0.00,,BKN120,0.00,VWS V14.01,2013-01-24 09:59:00,
2013-01-24 05:04:00,10.1,6.5,30.17,NW,319,0.0,1.0,85,0.00,,OVC110,0.00,VWS V14.01,2013-01-24 10:04:00,
2013-01-24 05:09:00,10.1,6.5,30.17,NW,319,0.0,1.0,85,0.00,,OVC110,0.00,VWS V14.01,2013-01-24 10:09:00,
2013-01-24 05:14:00,10.1,6.5,30.17,NW,319,0.0,1.0,85,0.00,,OVC110,0.00,VWS V14.01,2013-01-24 10:14:00,
2013-01-24 05:19:00,10.1,6.2,30.17,NW,319,0.0,1.0,84,0.00,,OVC110,0.00,VWS V14.01,2013-01-24 10:19:00,
2013-01-24 05:24:00,10.1,6.5,30.17,NW,319,0.0,1.0,85,0.00,,OVC110,0.00,VWS V14.01,2013-01-24 10:24:00,
2013-01-24 05:29:00,10.2,6.6,30.17,NW,319,0.0,1.0,85,0.00,,OVC110,0.00,VWS V14.01,2013-01-24 10:29:00,
2013-01-24 05:34:00,10.2,6.6,30.17,NW,319,0.0,0.0,85,0.00,,OVC110,0.00,VWS V14.01,2013-01-24 10:34:00,
2013-01-24 05:39:00,10.3,6.7,30.18,NW,319,0.0,0.0,85,0.00,,OVC110,0.00,VWS V14.01,2013-01-24 10:39:00,
2013-01-24 05:44:00,10.3,6.7,30.18,NW,319,0.0,0.0,85,0.00,,OVC110,0.00,VWS V14.01,2013-01-24 10:44:00,
2013-01-24 05:49:00,10.3,6.9,30.18,NW,319,0.0,1.0,86,0.00,,OVC110,0.00,VWS V14.01,2013-01-24 10:49:00,
2013-01-24 05:54:00,10.4,6.8,30.18,NW,319,1.0,2.0,85,0.00,,OVC110,0.00,VWS V14.01,2013-01-24 10:54:00,
2013-01-24 05:59:00,10.4,7.1,30.18,NW,319,0.0,2.0,86,0.00,,OVC110,0.00,VWS V14.01,2013-01-24 10:59:00,
2013-01-24 06:04:00,10.5,7.2,30.18,NW,319,0.0,1.0,86,0.00,,OVC100,0.00,VWS V14.01,2013-01-24 11:04:00,
2013-01-24 06:09:00,10.4,6.8,30.18,NW,319,0.0,1.0,85,0.00,,OVC100,0.00,VWS V14.01,2013-01-24 11:09:00,
2013-01-24 06:14:00,10.5,6.9,30.19,NW,319,0.0,1.0,85,0.00,,OVC100,0.00,VWS V14.01,2013-01-24 11:14:00,
2013-01-24 06:19:00,10.5,6.9,30.19,NW,319,0.0,1.0,85,0.00,,OVC100,0.00,VWS V14.01,2013-01-24 11:19:00,
2013-01-24 06:24:00,10.5,7.2,30.19,NW,319,0.0,1.0,86,0.00,,OVC100,0.00,VWS V14.01,2013-01-24 11:24:00,
2013-01-24 06:29:00,10.5,7.2,30.19,NW,319,0.0,1.0,86,0.00,,OVC100,0.00,VWS V14.01,2013-01-24 11:29:00,
2013-01-24 06:34:00,10.4,6.8,30.19,NW,319,0.0,1.0,85,0.00,,OVC100,0.00,VWS V14.01,2013-01-24 11:34:00,
2013-01-24 06:39:00,10.4,7.1,30.19,NW,319,0.0,1.0,86,0.00,,OVC100,0.00,VWS V14.01,2013-01-24 11:39:00,
2013-01-24 06:44:00,10.5,7.2,30.20,NW,319,0.0,1.0,86,0.00,,OVC100,0.00,VWS V14.01,2013-01-24 11:44:00,
2013-01-24 06:49:00,10.4,7.1,30.20,NW,319,0.0,1.0,86,0.00,,OVC100,0.00,VWS V14.01,2013-01-24 11:49:00,
2013-01-24 06:54:00,10.4,7.1,30.20,NW,319,0.0,1.0,86,0.00,,OVC100,0.00,VWS V14.01,2013-01-24 11:54:00,
2013-01-24 06:59:00,10.4,7.1,30.20,NW,319,0.0,1.0,86,0.00,,OVC100,0.00,VWS V14.01,2013-01-24 11:59:00,
2013-01-24 07:04:00,10.3,6.9,30.20,NW,319,0.0,0.0,86,0.00,,FEW100,0.00,VWS V14.01,2013-01-24 12:04:00,
2013-01-24 07:09:00,10.3,6.9,30.20,NW,319,0.0,1.0,86,0.00,,FEW100,0.00,VWS V14.01,2013-01-24 12:09:00,
2013-01-24 07:15:00,10.2,6.8,30.21,NW,319,0.0,1.0,86,0.00,,FEW100,0.00,VWS V14.01,2013-01-24 12:15:00,
2013-01-24 07:20:00,10.1,6.8,30.21,NW,319,0.0,1.0,86,0.00,,FEW100,0.00,VWS V14.01,2013-01-24 12:20:00,
2013-01-24 07:25:00,10.0,6.4,30.21,NW,319,0.0,1.0,85,0.00,,FEW100,0.00,VWS V14.01,2013-01-24 12:25:00,
2013-01-24 07:30:00,9.9,6.3,30.21,NW,319,0.0,0.0,85,0.00,,FEW100,0.00,VWS V14.01,2013-01-24 12:30:00,
2013-01-24 07:35:00,9.8,6.2,30.21,NW,319,0.0,0.0,85,0.00,,FEW100,0.00,VWS V14.01,2013-01-24 12:35:00,
2013-01-24 07:40:00,9.8,6.2,30.22,NW,319,0.0,0.0,85,0.00,,FEW100,0.00,VWS V14.01,2013-01-24 12:40:00,
2013-01-24 07:45:00,9.6,6.3,30.22,NW,319,0.0,0.0,86,0.00,,FEW100,0.00,VWS V14.01,2013-01-24 12:45:00,
2013-01-24 07:50:00,9.6,6.3,30.22,NW,319,0.0,0.0,86,0.00,,FEW100,0.00,VWS V14.01,2013-01-24 12:50:00,
2013-01-24 07:55:00,9.8,6.7,30.22,NW,319,0.0,0.0,87,0.00,,FEW100,0.00,VWS V14.01,2013-01-24 12:55:00,
2013-01-24 08:00:00,10.0,6.9,30.22,NW,319,0.0,0.0,87,0.00,,CLR,0.00,VWS V14.01,2013-01-24 13:00:00,
2013-01-24 08:05:00,10.3,7.2,30.22,NW,318,0.0,0.0,87,0.00,,CLR,0.00,VWS V14.01,2013-01-24 13:05:00,
2013-01-24 08:10:00,10.7,7.6,30.22,NW,319,0.0,1.0,87,0.00,,CLR,0.00,VWS V14.01,2013-01-24 13:10:00,
2013-01-24 08:15:00,11.1,8.0,30.23,NW,319,0.0,1.0,87,0.00,,CLR,0.00,VWS V14.01,2013-01-24 13:15:00,
2013-01-24 08:20:00,11.6,8.5,30.23,NW,319,0.0,1.0,87,0.00,,CLR,0.00,VWS V14.01,2013-01-24 13:20:00,
2013-01-24 08:25:00,12.2,8.8,30.23,NW,319,0.0,2.0,86,0.00,,CLR,0.00,VWS V14.01,2013-01-24 13:25:00,
2013-01-24 08:30:00,12.8,9.1,30.23,NW,313,3.0,4.0,85,0.00,,CLR,0.00,VWS V14.01,2013-01-24 13:30:00,
2013-01-24 08:35:00,13.5,9.3,30.24,NW,313,3.0,4.0,83,0.00,,CLR,0.00,VWS V14.01,2013-01-24 13:35:00,
2013-01-24 08:40:00,14.5,9.5,30.24,NW,317,3.0,5.0,80,0.00,,CLR,0.00,VWS V14.01,2013-01-24 13:40:00,
2013-01-24 08:45:00,15.7,9.8,30.24,NW,322,2.0,6.0,77,0.00,,CLR,0.00,VWS V14.01,2013-01-24 13:45:00,
2013-01-24 08:50:00,16.6,9.2,30.24,NNW,335,5.0,8.0,72,0.00,,CLR,0.00,VWS V14.01,2013-01-24 13:50:00,
2013-01-24 08:55:00,17.3,9.2,30.24,NW,323,2.0,8.0,70,0.00,,CLR,0.00,VWS V14.01,2013-01-24 13:55:00,
2013-01-24 09:00:00,18.0,9.2,30.24,WNW,300,1.0,3.0,68,0.00,,CLR,0.00,VWS V14.01,2013-01-24 14:00:00,
2013-01-24 09:05:00,18.7,9.2,30.24,North,360,1.0,9.0,66,0.00,,CLR,0.00,VWS V14.01,2013-01-24 14:05:00,
2013-01-24 09:10:00,19.5,9.3,30.25,WNW,300,4.0,9.0,64,0.00,,CLR,0.00,VWS V14.01,2013-01-24 14:10:00,
2013-01-24 09:15:00,19.9,8.6,30.25,NNW,329,3.0,11.0,61,0.00,,CLR,0.00,VWS V14.01,2013-01-24 14:15:00,
2013-01-24 09:20:00,20.2,8.6,30.25,WSW,252,6.0,11.0,60,0.00,,CLR,0.00,VWS V14.01,2013-01-24 14:20:00,
2013-01-24 09:25:00,20.2,8.2,30.25,NW,324,1.0,11.0,59,0.00,,CLR,0.00,VWS V14.01,2013-01-24 14:25:00,
2013-01-24 09:30:00,20.8,8.4,30.25,WNW,297,4.0,4.0,58,0.00,,CLR,0.00,VWS V14.01,2013-01-24 14:30:00,
2013-01-24 09:35:00,21.1,7.9,30.25,NNW,333,3.0,10.0,56,0.00,,CLR,0.00,VWS V14.01,2013-01-24 14:35:00,
2013-01-24 09:40:00,21.3,7.7,30.26,NNE,29,1.0,10.0,55,0.00,,CLR,0.00,VWS V14.01,2013-01-24 14:40:00,
2013-01-24 09:45:00,21.5,7.4,30.26,NNE,22,1.0,10.0,54,0.00,,CLR,0.00,VWS V14.01,2013-01-24 14:45:00,
2013-01-24 09:50:00,22.1,7.6,30.26,NW,311,4.0,11.0,53,0.00,,CLR,0.00,VWS V14.01,2013-01-24 14:50:00,
2013-01-24 09:55:00,22.1,7.2,30.26,NW,320,3.0,11.0,52,0.00,,CLR,0.00,VWS V14.01,2013-01-24 14:55:00,
2013-01-24 10:00:00,22.4,7.0,30.26,NW,325,5.0,9.0,51,0.00,,CLR,0.00,VWS V14.01,2013-01-24 15:00:00,
2013-01-24 10:05:00,22.5,6.7,30.26,NW,315,5.0,10.0,50,0.00,,CLR,0.00,VWS V14.01,2013-01-24 15:05:00,
2013-01-24 10:10:00,23.0,7.6,30.26,NNE,25,6.0,10.0,51,0.00,,CLR,0.00,VWS V14.01,2013-01-24 15:10:00,
2013-01-24 10:15:00,23.4,7.1,30.27,NW,307,4.0,10.0,49,0.00,,CLR,0.00,VWS V14.01,2013-01-24 15:15:00,
2013-01-24 10:20:00,24.1,7.7,30.27,WNW,300,2.0,10.0,49,0.00,,CLR,0.00,VWS V14.01,2013-01-24 15:20:00,
2013-01-24 10:25:00,24.8,7.0,30.27,North,9,4.0,10.0,46,0.00,,CLR,0.00,VWS V14.01,2013-01-24 15:25:00,
2013-01-24 10:30:00,25.1,6.8,30.27,WNW,283,5.0,9.0,45,0.00,,CLR,0.00,VWS V14.01,2013-01-24 15:30:00,
2013-01-24 10:35:00,25.0,6.7,30.27,NW,311,6.0,12.0,45,0.00,,CLR,0.00,VWS V14.01,2013-01-24 15:35:00,
2013-01-24 10:40:00,25.2,6.4,30.27,NW,315,3.0,12.0,44,0.00,,CLR,0.00,VWS V14.01,2013-01-24 15:40:00,
2013-01-24 10:45:00,25.4,6.0,30.27,WNW,290,5.0,13.0,43,0.00,,CLR,0.00,VWS V14.01,2013-01-24 15:45:00,
2013-01-24 10:50:00,24.9,5.1,30.27,NW,324,5.0,15.0,42,0.00,,CLR,0.00,VWS V14.01,2013-01-24 15:50:00,
2013-01-24 10:55:00,24.5,4.2,30.27,NNW,328,13.0,19.0,41,0.00,,CLR,0.00,VWS V14.01,2013-01-24 15:55:00,
2013-01-24 11:00:00,24.6,4.3,30.27,NW,307,13.0,14.0,41,0.00,,CLR,0.00,VWS V14.01,2013-01-24 16:00:00,
2013-01-24 11:05:00,25.2,5.3,30.27,WNW,301,6.0,14.0,42,0.00,,CLR,0.00,VWS V14.01,2013-01-24 16:05:00,
2013-01-24 11:10:00,25.6,4.6,30.27,NW,326,7.0,15.0,40,0.00,,CLR,0.00,VWS V14.01,2013-01-24 16:10:00,
2013-01-24 11:15:00,26.0,3.3,30.27,NW,320,3.0,16.0,37,0.00,,CLR,0.00,VWS V14.01,2013-01-24 16:15:00,
2013-01-24 11:21:00,26.4,4.2,30.27,NNW,333,2.0,16.0,38,0.00,,CLR,0.00,VWS V14.01,2013-01-24 16:21:00,
2013-01-24 11:26:00,27.0,3.6,30.27,NNW,338,5.0,16.0,36,0.00,,CLR,0.00,VWS V14.01,2013-01-24 16:26:00,
2013-01-24 11:31:00,27.5,4.1,30.27,NNW,338,4.0,9.0,36,0.00,,CLR,0.00,VWS V14.01,2013-01-24 16:31:00,
2013-01-24 11:36:00,27.6,2.9,30.27,NNW,334,7.0,11.0,34,0.00,,CLR,0.00,VWS V14.01,2013-01-24 16:36:00,
2013-01-24 11:41:00,27.4,2.7,30.27,NW,317,10.0,14.0,34,0.00,,CLR,0.00,VWS V14.01,2013-01-24 16:41:00,
2013-01-24 11:46:00,27.5,4.1,30.27,West,260,3.0,14.0,36,0.00,,CLR,0.00,VWS V14.01,2013-01-24 16:46:00,
2013-01-24 11:51:00,27.6,2.3,30.27,NNW,346,8.0,14.0,33,0.00,,CLR,0.00,VWS V14.01,2013-01-24 16:51:00,
2013-01-24 11:56:00,26.7,0.8,30.27,WNW,292,8.0,14.0,32,0.00,,CLR,0.00,VWS V14.01,2013-01-24 16:56:00,
2013-01-24 12:01:00,26.5,1.9,30.27,West,277,5.0,6.0,34,0.00,,CLR,0.00,VWS V14.01,2013-01-24 17:01:00,
2013-01-24 12:06:00,27.0,3.6,30.27,NW,306,6.0,13.0,36,0.00,,CLR,0.00,VWS V14.01,2013-01-24 17:06:00,
2013-01-24 12:11:00,27.5,2.8,30.27,NW,325,12.0,16.0,34,0.00,,CLR,0.00,VWS V14.01,2013-01-24 17:11:00,
2013-01-24 12:16:00,27.9,3.8,30.26,NNW,348,4.0,16.0,35,0.00,,CLR,0.00,VWS V14.01,2013-01-24 17:16:00,
2013-01-24 12:21:00,28.2,3.5,30.27,NW,313,11.0,16.0,34,0.00,,CLR,0.00,VWS V14.01,2013-01-24 17:21:00,
2013-01-24 12:26:00,28.1,3.4,30.27,NW,316,3.0,16.0,34,0.00,,CLR,0.00,VWS V14.01,2013-01-24 17:26:00,
2013-01-24 12:31:00,27.9,1.9,30.27,NNW,327,8.0,15.0,32,0.00,,CLR,0.00,VWS V14.01,2013-01-24 17:31:00,
2013-01-24 12:36:00,27.7,1.7,30.27,NNW,334,20.0,20.0,32,0.00,,CLR,0.00,VWS V14.01,2013-01-24 17:36:00,
2013-01-24 12:41:00,27.4,1.4,30.27,NNW,339,11.0,20.0,32,0.00,,CLR,0.00,VWS V14.01,2013-01-24 17:41:00,
2013-01-24 12:46:00,27.3,1.4,30.27,NW,309,8.0,20.0,32,0.00,,CLR,0.00,VWS V14.01,2013-01-24 17:46:00,
2013-01-24 12:51:00,27.7,2.4,30.27,WNW,288,3.0,20.0,33,0.00,,CLR,0.00,VWS V14.01,2013-01-24 17:51:00,
2013-01-24 12:56:00,28.1,2.0,30.27,NW,319,8.0,20.0,32,0.00,,CLR,0.00,VWS V14.01,2013-01-24 17:56:00,
2013-01-24 13:01:00,28.1,2.0,30.27,NW,310,3.0,8.0,32,0.00,,CLR,0.00,VWS V14.01,2013-01-24 18:01:00,
2013-01-24 13:06:00,27.5,2.8,30.27,NNW,330,2.0,15.0,34,0.00,,CLR,0.00,VWS V14.01,2013-01-24 18:06:00,
2013-01-24 13:11:00,26.8,2.2,30.27,WNW,295,5.0,15.0,34,0.00,,CLR,0.00,VWS V14.01,2013-01-24 18:11:00,
2013-01-24 13:16:00,27.1,2.5,30.27,NW,325,11.0,16.0,34,0.00,,CLR,0.00,VWS V14.01,2013-01-24 18:16:00,
2013-01-24 13:21:00,26.3,1.8,30.27,NW,326,6.0,16.0,34,0.00,,CLR,0.00,VWS V14.01,2013-01-24 18:21:00,
2013-01-24 13:26:00,25.7,1.2,30.27,NW,325,6.0,16.0,34,0.00,,CLR,0.00,VWS V14.01,2013-01-24 18:26:00,
2013-01-24 13:31:00,26.3,2.4,30.27,NW,309,9.0,13.0,35,0.00,,CLR,0.00,VWS V14.01,2013-01-24 18:31:00,
2013-01-24 13:36:00,26.6,0.7,30.27,NW,304,12.0,16.0,32,0.00,,CLR,0.00,VWS V14.01,2013-01-24 18:36:00,
2013-01-24 13:41:00,26.4,-0.8,30.27,NNW,338,8.0,22.0,30,0.00,,CLR,0.00,VWS V14.01,2013-01-24 18:41:00,
2013-01-24 13:46:00,25.9,-0.6,30.27,North,355,10.0,23.0,31,0.00,,CLR,0.00,VWS V14.01,2013-01-24 18:46:00,
2013-01-24 13:51:00,26.3,-0.2,30.28,WNW,284,7.0,23.0,31,0.00,,CLR,0.00,VWS V14.01,2013-01-24 18:51:00,
2013-01-24 13:56:00,26.9,-0.4,30.28,NNW,343,9.0,23.0,30,0.00,,CLR,0.00,VWS V14.01,2013-01-24 18:56:00,
2013-01-24 14:01:00,27.6,0.2,30.28,NNW,329,9.0,17.0,30,0.00,,FEW060,0.00,VWS V14.01,2013-01-24 19:01:00,
2013-01-24 14:06:00,27.9,-1.7,30.28,NW,317,3.0,22.0,27,0.00,,FEW060,0.00,VWS V14.01,2013-01-24 19:06:00,
2013-01-24 14:11:00,27.9,-1.0,30.28,NW,323,16.0,22.0,28,0.00,,FEW060,0.00,VWS V14.01,2013-01-24 19:11:00,
2013-01-24 14:16:00,27.7,-1.1,30.28,NW,313,9.0,26.0,28,0.00,,FEW060,0.00,VWS V14.01,2013-01-24 19:16:00,
2013-01-24 14:21:00,27.6,-0.5,30.29,NNW,331,14.0,26.0,29,0.00,,FEW060,0.00,VWS V14.01,2013-01-24 19:21:00,
2013-01-24 14:26:00,27.7,-0.4,30.29,NW,318,9.0,26.0,29,0.00,,FEW060,0.00,VWS V14.01,2013-01-24 19:26:00,
2013-01-24 14:31:00,28.1,-0.1,30.29,NW,317,7.0,15.0,29,0.00,,FEW060,0.00,VWS V14.01,2013-01-24 19:31:00,
2013-01-24 14:36:00,27.9,-1.0,30.29,NW,319,5.0,24.0,28,0.00,,FEW060,0.00,VWS V14.01,2013-01-24 19:36:00,
2013-01-24 14:41:00,27.7,-0.4,30.29,NNW,340,13.0,24.0,29,0.00,,FEW060,0.00,VWS V14.01,2013-01-24 19:41:00,
2013-01-24 14:46:00,27.7,0.3,30.30,NNW,343,13.0,24.0,30,0.00,,FEW060,0.00,VWS V14.01,2013-01-24 19:46:00,
2013-01-24 14:51:00,27.8,-0.3,30.29,WNW,300,10.0,24.0,29,0.00,,FEW060,0.00,VWS V14.01,2013-01-24 19:51:00,
2013-01-24 14:56:00,27.8,0.4,30.30,WNW,296,11.0,24.0,30,0.00,,FEW060,0.00,VWS V14.01,2013-01-24 19:56:00,
2013-01-24 15:01:00,27.9,0.5,30.30,WNW,296,10.0,13.0,30,0.00,,CLR,0.00,VWS V14.01,2013-01-24 20:01:00,
2013-01-24 15:06:00,27.6,0.2,30.30,NW,307,10.0,15.0,30,0.00,,CLR,0.00,VWS V14.01,2013-01-24 20:06:00,
2013-01-24 15:11:00,27.4,0.8,30.31,WNW,288,11.0,20.0,31,0.00,,CLR,0.00,VWS V14.01,2013-01-24 20:11:00,
2013-01-24 15:16:00,27.2,1.9,30.31,WNW,286,9.0,20.0,33,0.00,,CLR,0.00,VWS V14.01,2013-01-24 20:16:00,
2013-01-24 15:22:00,27.3,1.4,30.32,NNW,333,9.0,20.0,32,0.00,,CLR,0.00,VWS V14.01,2013-01-24 20:22:00,
2013-01-24 15:27:00,27.4,1.4,30.32,NW,312,5.0,20.0,32,0.00,,CLR,0.00,VWS V14.01,2013-01-24 20:27:00,
2013-01-24 15:32:00,26.7,0.1,30.32,NW,309,9.0,22.0,31,0.00,,CLR,0.00,VWS V14.01,2013-01-24 20:32:00,
2013-01-24 15:37:00,26.1,0.3,30.32,NNW,328,11.0,22.0,32,0.00,,CLR,0.00,VWS V14.01,2013-01-24 20:37:00,
2013-01-24 15:42:00,25.6,0.5,30.33,NNW,329,14.0,23.0,33,0.00,,CLR,0.00,VWS V14.01,2013-01-24 20:42:00,
2013-01-24 15:47:00,25.3,0.2,30.33,WNW,292,9.0,23.0,33,0.00,,CLR,0.00,VWS V14.01,2013-01-24 20:47:00,
2013-01-24 15:52:00,24.9,0.5,30.33,NW,317,10.0,23.0,34,0.00,,CLR,0.00,VWS V14.01,2013-01-24 20:52:00,
2013-01-24 15:57:00,24.5,1.4,30.34,West,265,9.0,23.0,36,0.00,,CLR,0.00,VWS V14.01,2013-01-24 20:57:00,
2013-01-24 16:02:00,24.2,1.1,30.34,NW,324,7.0,13.0,36,0.00,,CLR,0.00,VWS V14.01,2013-01-24 21:02:00,
2013-01-24 16:07:00,23.8,1.3,30.35,WNW,302,12.0,17.0,37,0.00,,CLR,0.00,VWS V14.01,2013-01-24 21:07:00,
2013-01-24 16:12:00,23.6,1.7,30.35,WNW,286,10.0,17.0,38,0.00,,CLR,0.00,VWS V14.01,2013-01-24 21:12:00,
2013-01-24 16:17:00,23.3,1.5,30.35,NW,311,9.0,20.0,38,0.00,,CLR,0.00,VWS V14.01,2013-01-24 21:17:00,
2013-01-24 16:22:00,23.3,2.0,30.35,West,273,9.0,22.0,39,0.00,,CLR,0.00,VWS V14.01,2013-01-24 21:22:00,
2013-01-24 16:27:00,23.1,1.8,30.35,NW,304,6.0,22.0,39,0.00,,CLR,0.00,VWS V14.01,2013-01-24 21:27:00,
2013-01-24 16:32:00,23.0,2.3,30.35,North,351,11.0,17.0,40,0.00,,CLR,0.00,VWS V14.01,2013-01-24 21:32:00,
2013-01-24 16:37:00,22.8,1.6,30.36,NNW,331,14.0,19.0,39,0.00,,CLR,0.00,VWS V14.01,2013-01-24 21:37:00,
2013-01-24 16:42:00,22.5,1.8,30.36,NW,313,3.0,20.0,40,0.00,,CLR,0.00,VWS V14.01,2013-01-24 21:42:00,
2013-01-24 16:47:00,22.4,1.8,30.36,WNW,298,6.0,20.0,40,0.00,,CLR,0.00,VWS V14.01,2013-01-24 21:47:00,
2013-01-24 16:52:00,22.2,2.1,30.36,NNW,336,7.0,20.0,41,0.00,,CLR,0.00,VWS V14.01,2013-01-24 21:52:00,
2013-01-24 16:57:00,22.1,2.0,30.36,NW,310,6.0,20.0,41,0.00,,CLR,0.00,VWS V14.01,2013-01-24 21:57:00,
2013-01-24 17:02:00,22.0,2.4,30.36,WNW,282,3.0,15.0,42,0.00,,CLR,0.00,VWS V14.01,2013-01-24 22:02:00,
2013-01-24 17:07:00,21.9,2.8,30.37,NNW,331,7.0,15.0,43,0.00,,CLR,0.00,VWS V14.01,2013-01-24 22:07:00,
2013-01-24 17:12:00,21.8,2.8,30.37,NNW,342,10.0,15.0,43,0.00,,CLR,0.00,VWS V14.01,2013-01-24 22:12:00,
2013-01-24 17:17:00,21.7,3.2,30.37,WNW,284,3.0,15.0,44,0.00,,CLR,0.00,VWS V14.01,2013-01-24 22:17:00,
2013-01-24 17:22:00,21.7,2.7,30.38,NW,315,4.0,15.0,43,0.00,,CLR,0.00,VWS V14.01,2013-01-24 22:22:00,
2013-01-24 17:27:00,21.5,2.5,30.38,NW,320,5.0,15.0,43,0.00,,CLR,0.00,VWS V14.01,2013-01-24 22:27:00,
2013-01-24 17:32:00,21.4,1.9,30.38,West,267,3.0,16.0,42,0.00,,CLR,0.00,VWS V14.01,2013-01-24 22:32:00,
2013-01-24 17:37:00,21.4,1.9,30.38,NW,307,5.0,16.0,42,0.00,,CLR,0.00,VWS V14.01,2013-01-24 22:37:00,
2013-01-24 17:42:00,21.3,2.3,30.39,NNW,328,9.0,16.0,43,0.00,,CLR,0.00,VWS V14.01,2013-01-24 22:42:00,
2013-01-24 17:47:00,21.1,2.1,30.39,NW,323,3.0,16.0,43,0.00,,CLR,0.00,VWS V14.01,2013-01-24 22:47:00,
2013-01-24 17:52:00,20.9,2.4,30.39,WNW,293,9.0,16.0,44,0.00,,CLR,0.00,VWS V14.01,2013-01-24 22:52:00,
2013-01-24 17:57:00,20.9,2.4,30.39,West,281,5.0,16.0,44,0.00,,CLR,0.00,VWS V14.01,2013-01-24 22:57:00,
2013-01-24 18:02:00,20.8,2.3,30.40,NNW,338,5.0,9.0,44,0.00,,CLR,0.00,VWS V14.01,2013-01-24 23:02:00,
2013-01-24 18:07:00,20.8,2.8,30.40,West,277,2.0,13.0,45,0.00,,CLR,0.00,VWS V14.01,2013-01-24 23:07:00,
2013-01-24 18:12:00,20.8,2.3,30.40,NW,321,5.0,13.0,44,0.00,,CLR,0.00,VWS V14.01,2013-01-24 23:12:00,
2013-01-24 18:17:00,20.6,2.2,30.40,NW,315,5.0,13.0,44,0.00,,CLR,0.00,VWS V14.01,2013-01-24 23:17:00,
2013-01-24 18:22:00,20.6,2.6,30.41,NW,322,6.0,13.0,45,0.00,,CLR,0.00,VWS V14.01,2013-01-24 23:22:00,
2013-01-24 18:27:00,20.5,2.1,30.41,NNW,336,4.0,13.0,44,0.00,,CLR,0.00,VWS V14.01,2013-01-24 23:27:00,
2013-01-24 18:32:00,20.6,2.6,30.41,WNW,303,5.0,8.0,45,0.00,,CLR,0.00,VWS V14.01,2013-01-24 23:32:00,
2013-01-24 18:37:00,20.7,2.7,30.41,West,267,2.0,9.0,45,0.00,,CLR,0.00,VWS V14.01,2013-01-24 23:37:00,
2013-01-24 18:42:00,20.6,2.6,30.42,WNW,286,4.0,9.0,45,0.00,,CLR,0.00,VWS V14.01,2013-01-24 23:42:00,
2013-01-24 18:47:00,20.6,3.1,30.42,NW,322,5.0,9.0,46,0.00,,CLR,0.00,VWS V14.01,2013-01-24 23:47:00,
2013-01-24 18:52:00,20.6,2.6,30.42,WNW,285,3.0,9.0,45,0.00,,CLR,0.00,VWS V14.01,2013-01-24 23:52:00,
2013-01-24 18:57:00,20.6,3.1,30.42,WNW,302,5.0,9.0,46,0.00,,CLR,0.00,VWS V14.01,2013-01-24 23:57:00,
2013-01-24 19:02:00,20.5,3.5,30.42,NW,310,4.0,9.0,47,0.00,,CLR,0.00,VWS V14.01,2013-01-25 00:02:00,
2013-01-24 19:07:00,20.4,2.5,30.42,NW,311,5.0,9.0,45,0.00,,CLR,0.00,VWS V14.01,2013-01-25 00:07:00,
2013-01-24 19:12:00,20.3,2.8,30.42,NNW,330,5.0,9.0,46,0.00,,CLR,0.00,VWS V14.01,2013-01-25 00:12:00,
2013-01-24 19:17:00,20.3,3.3,30.43,WNW,302,3.0,9.0,47,0.00,,CLR,0.00,VWS V14.01,2013-01-25 00:17:00,
2013-01-24 19:22:00,20.2,3.2,30.43,NW,313,4.0,11.0,47,0.00,,CLR,0.00,VWS V14.01,2013-01-25 00:22:00,
2013-01-24 19:27:00,20.1,3.6,30.43,NW,319,3.0,11.0,48,0.00,,CLR,0.00,VWS V14.01,2013-01-25 00:27:00,
2013-01-24 19:32:00,20.0,3.0,30.43,WNW,293,4.0,11.0,47,0.00,,CLR,0.00,VWS V14.01,2013-01-25 00:32:00,
2013-01-24 19:38:00,19.8,3.3,30.43,West,281,6.0,11.0,48,0.00,,CLR,0.00,VWS V14.01,2013-01-25 00:38:00,
2013-01-24 19:43:00,19.7,2.8,30.43,WNW,299,4.0,11.0,47,0.00,,CLR,0.00,VWS V14.01,2013-01-25 00:43:00,
2013-01-24 19:48:00,19.6,3.1,30.43,West,279,5.0,12.0,48,0.00,,CLR,0.00,VWS V14.01,2013-01-25 00:48:00,
2013-01-24 19:53:00,19.6,3.1,30.43,WNW,289,5.0,12.0,48,0.00,,CLR,0.00,VWS V14.01,2013-01-25 00:53:00,
2013-01-24 19:58:00,19.5,3.5,30.43,NW,314,4.0,12.0,49,0.00,,CLR,0.00,VWS V14.01,2013-01-25 00:58:00,
2013-01-24 20:03:00,19.7,3.7,30.43,NNW,329,7.0,12.0,49,0.00,,CLR,0.00,VWS V14.01,2013-01-25 01:03:00,
2013-01-24 20:08:00,19.9,3.8,30.43,West,280,4.0,16.0,49,0.00,,CLR,0.00,VWS V14.01,2013-01-25 01:08:00,
2013-01-24 20:13:00,20.1,4.0,30.43,WSW,249,4.0,16.0,49,0.00,,CLR,0.00,VWS V14.01,2013-01-25 01:13:00,
2013-01-24 20:18:00,20.2,4.1,30.43,NW,319,5.0,16.0,49,0.00,,CLR,0.00,VWS V14.01,2013-01-25 01:18:00,
2013-01-24 20:23:00,20.0,3.5,30.43,West,279,3.0,16.0,48,0.00,,CLR,0.00,VWS V14.01,2013-01-25 01:23:00,
2013-01-24 20:28:00,19.8,3.3,30.43,NW,316,6.0,16.0,48,0.00,,CLR,0.00,VWS V14.01,2013-01-25 01:28:00,
2013-01-24 20:33:00,19.8,3.7,30.43,NW,316,3.0,10.0,49,0.00,,CLR,0.00,VWS V14.01,2013-01-25 01:33:00,
2013-01-24 20:38:00,19.7,4.1,30.43,NNW,327,3.0,12.0,50,0.00,,CLR,0.00,VWS V14.01,2013-01-25 01:38:00,
2013-01-24 20:43:00,19.7,3.2,30.43,WNW,292,5.0,14.0,48,0.00,,CLR,0.00,VWS V14.01,2013-01-25 01:43:00,
2013-01-24 20:48:00,19.8,3.7,30.43,WNW,284,7.0,14.0,49,0.00,,CLR,0.00,VWS V14.01,2013-01-25 01:48:00,
2013-01-24 20:53:00,19.7,3.2,30.44,NW,319,8.0,14.0,48,0.00,,CLR,0.00,VWS V14.01,2013-01-25 01:53:00,
2013-01-24 20:58:00,19.7,3.7,30.43,WNW,301,4.0,17.0,49,0.00,,CLR,0.00,VWS V14.01,2013-01-25 01:58:00,
2013-01-24 21:03:00,19.5,3.0,30.43,WNW,291,4.0,14.0,48,0.00,,CLR,0.00,VWS V14.01,2013-01-25 02:03:00,
2013-01-24 21:08:00,19.5,3.5,30.43,West,267,9.0,16.0,49,0.00,,CLR,0.00,VWS V14.01,2013-01-25 02:08:00,
2013-01-24 21:13:00,19.5,3.5,30.43,WNW,284,9.0,16.0,49,0.00,,CLR,0.00,VWS V14.01,2013-01-25 02:13:00,
2013-01-24 21:18:00,19.5,3.5,30.43,NW,309,4.0,16.0,49,0.00,,CLR,0.00,VWS V14.01,2013-01-25 02:18:00,
2013-01-24 21:23:00,19.4,2.5,30.43,West,280,3.0,18.0,47,0.00,,CLR,0.00,VWS V14.01,2013-01-25 02:23:00,
2013-01-24 21:28:00,19.1,2.7,30.43,WNW,295,5.0,18.0,48,0.00,,CLR,0.00,VWS V14.01,2013-01-25 02:28:00,
2013-01-24 21:33:00,19.0,2.6,30.43,NW,306,5.0,18.0,48,0.00,,CLR,0.00,VWS V14.01,2013-01-25 02:33:00,
2013-01-24 21:38:00,18.8,2.4,30.43,WNW,287,7.0,18.0,48,0.00,,CLR,0.00,VWS V14.01,2013-01-25 02:38:00,
2013-01-24 21:43:00,18.9,2.5,30.43,WNW,300,8.0,18.0,48,0.00,,CLR,0.00,VWS V14.01,2013-01-25 02:43:00,
2013-01-24 21:48:00,18.9,2.5,30.43,NNW,330,14.0,18.0,48,0.00,,CLR,0.00,VWS V14.01,2013-01-25 02:48:00,
2013-01-24 21:53:00,18.7,2.7,30.42,NW,309,12.0,18.0,49,0.00,,CLR,0.00,VWS V14.01,2013-01-25 02:53:00,
2013-01-24 21:58:00,18.6,2.6,30.43,NNW,342,5.0,18.0,49,0.00,,CLR,0.00,VWS V14.01,2013-01-25 02:58:00,
2013-01-24 22:04:00,18.5,2.5,30.43,NW,310,8.0,10.0,49,0.00,,CLR,0.00,VWS V14.01,2013-01-25 03:04:00,
2013-01-24 22:09:00,18.4,2.4,30.43,WNW,293,7.0,10.0,49,0.00,,CLR,0.00,VWS V14.01,2013-01-25 03:09:00,
2013-01-24 22:14:00,18.3,2.3,30.43,West,269,5.0,10.0,49,0.00,,CLR,0.00,VWS V14.01,2013-01-25 03:14:00,
2013-01-24 22:19:00,18.2,2.3,30.43,NW,311,5.0,12.0,49,0.00,,CLR,0.00,VWS V14.01,2013-01-25 03:19:00,
2013-01-24 22:24:00,18.1,2.2,30.43,NW,306,3.0,16.0,49,0.00,,CLR,0.00,VWS V14.01,2013-01-25 03:24:00,
2013-01-24 22:29:00,18.0,2.1,30.44,WNW,300,6.0,16.0,49,0.00,,CLR,0.00,VWS V14.01,2013-01-25 03:29:00,
2013-01-24 22:34:00,17.9,2.4,30.44,NW,306,5.0,13.0,50,0.00,,CLR,0.00,VWS V14.01,2013-01-25 03:34:00,
2013-01-24 22:39:00,17.9,2.4,30.43,WNW,290,11.0,13.0,50,0.00,,CLR,0.00,VWS V14.01,2013-01-25 03:39:00,
2013-01-24 22:44:00,17.8,2.3,30.43,WNW,288,4.0,13.0,50,0.00,,CLR,0.00,VWS V14.01,2013-01-25 03:44:00,
2013-01-24 22:49:00,17.7,2.2,30.43,NW,316,5.0,13.0,50,0.00,,CLR,0.00,VWS V14.01,2013-01-25 03:49:00,
2013-01-24 22:54:00,17.6,2.1,30.44,NW,305,10.0,13.0,50,0.00,,CLR,0.00,VWS V14.01,2013-01-25 03:54:00,
2013-01-24 22:59:00,17.5,2.0,30.44,NW,304,7.0,13.0,50,0.00,,CLR,0.00,VWS V14.01,2013-01-25 03:59:00,
2013-01-24 23:04:00,17.5,2.0,30.44,NW,326,4.0,15.0,50,0.00,,CLR,0.00,VWS V14.01,2013-01-25 04:04:00,
2013-01-24 23:09:00,17.4,2.0,30.44,NW,309,6.0,15.0,50,0.00,,CLR,0.00,VWS V14.01,2013-01-25 04:09:00,
2013-01-24 23:14:00,17.4,2.0,30.44,NNW,330,10.0,15.0,50,0.00,,CLR,0.00,VWS V14.01,2013-01-25 04:14:00,
2013-01-24 23:19:00,17.3,1.9,30.44,NW,313,2.0,15.0,50,0.00,,CLR,0.00,VWS V14.01,2013-01-25 04:19:00,
2013-01-24 23:24:00,17.1,2.1,30.45,NW,308,5.0,15.0,51,0.00,,CLR,0.00,VWS V14.01,2013-01-25 04:24:00,
2013-01-24 23:29:00,17.1,1.7,30.45,WNW,282,5.0,15.0,50,0.00,,CLR,0.00,VWS V14.01,2013-01-25 04:29:00,
2013-01-24 23:34:00,17.1,1.7,30.45,NW,318,7.0,15.0,50,0.00,,CLR,0.00,VWS V14.01,2013-01-25 04:34:00,
2013-01-24 23:39:00,17.0,1.6,30.45,West,275,2.0,15.0,50,0.00,,CLR,0.00,VWS V14.01,2013-01-25 04:39:00,
2013-01-24 23:44:00,17.0,1.6,30.46,WNW,286,5.0,15.0,50,0.00,,CLR,0.00,VWS V14.01,2013-01-25 04:44:00,
2013-01-24 23:49:00,16.9,1.5,30.45,WNW,292,5.0,15.0,50,0.00,,CLR,0.00,VWS V14.01,2013-01-25 04:49:00,
2013-01-24 23:54:00,16.8,1.4,30.45,WNW,300,3.0,15.0,50,0.00,,CLR,0.00,VWS V14.01,2013-01-25 04:54:00,
2013-01-24 23:59:00,16.7,1.3,30.45,NNW,328,4.0,15.0,50,0.00,,CLR,0.00,VWS V14.01,2013-01-25 04:59:00,